Time,TemperatureF,DewpointF,PressureIn,WindDirection,WindDirectionDegrees,WindSpeedMPH,WindSpeedGustMPH,Humidity,HourlyPrecipIn,Conditions,Clouds,dailyrainin,SoftwareType,DateUTC
2013-02-27 00:04:00,42.3,35.0,29.83,West,278,0.0,-999.0,75,-99.99,,,0.22,weatherlink.com 1.10,2013-02-27 06:04:00,
2013-02-27 00:19:00,42.3,35.0,29.83,WSW,257,0.0,-999.0,75,-99.99,,,0.22,weatherlink.com 1.10,2013-02-27 06:19:00,
2013-02-27 00:34:00,42.2,36.0,29.83,WSW,238,1.0,-999.0,78,-99.99,,,0.22,weatherlink.com 1.10,2013-02-27 06:34:00,
2013-02-27 00:49:00,42.2,35.0,29.84,West,272,2.0,-999.0,77,-99.99,,,0.22,weatherlink.com 1.10,2013-02-27 06:49:00,
2013-02-27 01:04:00,42.1,36.0,29.84,SSW,201,0.0,-999.0,78,-99.99,,,0.22,weatherlink.com 1.10,2013-02-27 07:04:00,
2013-02-27 01:19:00,42.2,35.0,29.84,WSW,252,2.0,-999.0,77,-99.99,,,0.22,weatherlink.com 1.10,2013-02-27 07:19:00,
2013-02-27 01:34:00,42.1,36.0,29.84,West,269,1.0,-999.0,78,-99.99,,,0.00,weatherlink.com 1.10,2013-02-27 07:34:00,
2013-02-27 01:49:00,42.2,36.0,29.84,West,281,2.0,-999.0,78,-99.99,,,0.00,weatherlink.com 1.10,2013-02-27 07:49:00,
2013-02-27 02:04:00,42.1,35.0,29.84,WSW,242,1.0,-999.0,77,-99.99,,,0.00,weatherlink.com 1.10,2013-02-27 08:04:00,
2013-02-27 02:19:00,42.1,35.0,29.84,West,267,6.0,-999.0,76,-99.99,,,0.00,weatherlink.com 1.10,2013-02-27 08:19:00,
2013-02-27 02:34:00,42.3,35.0,29.85,WNW,285,2.0,-999.0,75,-99.99,,,0.00,weatherlink.com 1.10,2013-02-27 08:34:00,
2013-02-27 02:49:00,42.2,34.0,29.85,WSW,249,6.0,-999.0,74,-99.99,,,0.00,weatherlink.com 1.10,2013-02-27 08:49:00,
2013-02-27 03:04:00,42.2,35.0,29.85,West,270,10.0,-999.0,75,-99.99,,,0.00,weatherlink.com 1.10,2013-02-27 09:04:00,
2013-02-27 03:19:00,42.1,34.0,29.86,West,265,2.0,-999.0,74,-99.99,,,0.00,weatherlink.com 1.10,2013-02-27 09:19:00,
2013-02-27 03:34:00,42.0,34.0,29.86,WNW,300,3.0,-999.0,74,-99.99,,,0.00,weatherlink.com 1.10,2013-02-27 09:34:00,
2013-02-27 03:49:00,41.9,34.0,29.86,West,271,2.0,-999.0,74,-99.99,,,0.00,weatherlink.com 1.10,2013-02-27 09:49:00,
2013-02-27 04:04:00,41.8,34.0,29.86,WSW,239,1.0,-999.0,73,-99.99,,,0.00,weatherlink.com 1.10,2013-02-27 10:04:00,
2013-02-27 04:19:00,41.7,34.0,29.86,West,265,0.0,-999.0,73,-99.99,,,0.00,weatherlink.com 1.10,2013-02-27 10:19:00,
2013-02-27 04:34:00,41.5,34.0,29.87,West,267,3.0,-999.0,74,-99.99,,,0.00,weatherlink.com 1.10,2013-02-27 10:34:00,
2013-02-27 04:49:00,41.3,34.0,29.87,West,273,0.0,-999.0,75,-99.99,,,0.00,weatherlink.com 1.10,2013-02-27 10:49:00,
2013-02-27 05:04:00,41.2,34.0,29.88,West,267,1.0,-999.0,76,-99.99,,,0.00,weatherlink.com 1.10,2013-02-27 11:04:00,
2013-02-27 05:19:00,41.0,34.0,29.87,West,267,0.0,-999.0,77,-99.99,,,0.00,weatherlink.com 1.10,2013-02-27 11:19:00,
2013-02-27 05:34:00,40.7,34.0,29.87,WSW,239,0.0,-999.0,76,-99.99,,,0.00,weatherlink.com 1.10,2013-02-27 11:34:00,
2013-02-27 05:49:00,40.6,34.0,29.87,West,269,0.0,-999.0,76,-99.99,,,0.00,weatherlink.com 1.10,2013-02-27 11:49:00,
2013-02-27 06:04:00,40.5,34.0,29.87,West,272,2.0,-999.0,77,-99.99,,,0.00,weatherlink.com 1.10,2013-02-27 12:04:00,
2013-02-27 06:19:00,40.3,34.0,29.88,WSW,255,1.0,-999.0,77,-99.99,,,0.00,weatherlink.com 1.10,2013-02-27 12:19:00,
2013-02-27 06:34:00,40.1,33.0,29.89,WSW,257,3.0,-999.0,77,-99.99,,,0.00,weatherlink.com 1.10,2013-02-27 12:34:00,
2013-02-27 06:50:00,40.1,33.0,29.89,West,264,2.0,-999.0,75,-99.99,,,0.00,weatherlink.com 1.10,2013-02-27 12:50:00,
2013-02-27 07:05:00,40.3,33.0,29.90,SW,233,1.0,-999.0,76,-99.99,,,0.00,weatherlink.com 1.10,2013-02-27 13:05:00,
2013-02-27 07:20:00,40.5,34.0,29.91,WNW,293,2.0,-999.0,76,-99.99,,,0.00,weatherlink.com 1.10,2013-02-27 13:20:00,
2013-02-27 07:35:00,40.9,34.0,29.91,SW,232,1.0,-999.0,77,-99.99,,,0.00,weatherlink.com 1.10,2013-02-27 13:35:00,
2013-02-27 07:50:00,41.5,34.0,29.91,West,275,0.0,-999.0,74,-99.99,,,0.00,weatherlink.com 1.10,2013-02-27 13:50:00,
2013-02-27 08:05:00,42.5,34.0,29.91,SW,235,4.0,-999.0,73,-99.99,,,0.00,weatherlink.com 1.10,2013-02-27 14:05:00,
2013-02-27 08:20:00,42.7,34.0,29.91,WNW,288,1.0,-999.0,70,-99.99,,,0.00,weatherlink.com 1.10,2013-02-27 14:20:00,
2013-02-27 08:35:00,43.3,34.0,29.92,WSW,250,4.0,-999.0,69,-99.99,,,0.00,weatherlink.com 1.10,2013-02-27 14:35:00,
2013-02-27 08:50:00,44.0,34.0,29.92,West,269,0.0,-999.0,67,-99.99,,,0.00,weatherlink.com 1.10,2013-02-27 14:50:00,
2013-02-27 09:05:00,44.5,34.0,29.92,WSW,243,2.0,-999.0,68,-99.99,,,0.00,weatherlink.com 1.10,2013-02-27 15:05:00,
2013-02-27 09:20:00,45.4,34.0,29.92,WSW,257,2.0,-999.0,65,-99.99,,,0.00,weatherlink.com 1.10,2013-02-27 15:20:00,
2013-02-27 09:35:00,46.0,35.0,29.91,WSW,253,1.0,-999.0,65,-99.99,,,0.00,weatherlink.com 1.10,2013-02-27 15:35:00,
2013-02-27 09:50:00,46.1,34.0,29.91,WNW,296,2.0,-999.0,64,-99.99,,,0.00,weatherlink.com 1.10,2013-02-27 15:50:00,
2013-02-27 10:05:00,47.2,35.0,29.91,West,273,3.0,-999.0,63,-99.99,,,0.00,weatherlink.com 1.10,2013-02-27 16:05:00,
2013-02-27 10:20:00,47.6,35.0,29.91,SSW,213,2.0,-999.0,61,-99.99,,,0.00,weatherlink.com 1.10,2013-02-27 16:20:00,
2013-02-27 10:35:00,48.6,35.0,29.91,WNW,282,1.0,-999.0,60,-99.99,,,0.00,weatherlink.com 1.10,2013-02-27 16:35:00,
2013-02-27 10:50:00,50.4,36.0,29.91,South,186,3.0,-999.0,59,-99.99,,,0.00,weatherlink.com 1.10,2013-02-27 16:50:00,
2013-02-27 11:05:00,50.5,37.0,29.91,SSE,148,2.0,-999.0,60,-99.99,,,0.00,weatherlink.com 1.10,2013-02-27 17:05:00,
2013-02-27 11:20:00,51.3,36.0,29.90,WSW,243,3.0,-999.0,57,-99.99,,,0.00,weatherlink.com 1.10,2013-02-27 17:20:00,
2013-02-27 11:35:00,51.6,37.0,29.90,West,267,3.0,-999.0,57,-99.99,,,0.00,weatherlink.com 1.10,2013-02-27 17:35:00,
2013-02-27 11:50:00,52.7,37.0,29.89,WSW,241,7.0,-999.0,55,-99.99,,,0.01,weatherlink.com 1.10,2013-02-27 17:50:00,
2013-02-27 12:05:00,52.9,36.0,29.88,West,279,1.0,-999.0,53,-99.99,,,0.01,weatherlink.com 1.10,2013-02-27 18:05:00,
2013-02-27 12:20:00,53.9,36.0,29.87,West,265,5.0,-999.0,51,-99.99,,,0.01,weatherlink.com 1.10,2013-02-27 18:20:00,
2013-02-27 12:35:00,54.5,36.0,29.86,West,262,6.0,-999.0,50,-99.99,,,0.01,weatherlink.com 1.10,2013-02-27 18:35:00,
2013-02-27 12:51:00,55.4,37.0,29.86,NW,309,6.0,-999.0,50,-99.99,,,0.01,weatherlink.com 1.10,2013-02-27 18:51:00,
2013-02-27 13:06:00,55.5,36.0,29.85,SSW,207,5.0,-999.0,48,-99.99,,,0.01,weatherlink.com 1.10,2013-02-27 19:06:00,
2013-02-27 13:21:00,56.3,34.0,29.85,WSW,243,4.0,-999.0,44,-99.99,,,0.01,weatherlink.com 1.10,2013-02-27 19:21:00,
2013-02-27 13:36:00,56.3,36.0,29.86,SSW,205,4.0,-999.0,47,-99.99,,,0.01,weatherlink.com 1.10,2013-02-27 19:36:00,
2013-02-27 13:51:00,56.7,35.0,29.85,West,265,6.0,-999.0,44,-99.99,,,0.01,weatherlink.com 1.10,2013-02-27 19:51:00,
2013-02-27 14:06:00,57.0,36.0,29.85,WNW,286,4.0,-999.0,46,-99.99,,,0.01,weatherlink.com 1.10,2013-02-27 20:06:00,
2013-02-27 14:21:00,56.5,36.0,29.85,WNW,301,1.0,-999.0,46,-99.99,,,0.01,weatherlink.com 1.10,2013-02-27 20:21:00,
2013-02-27 14:36:00,56.7,35.0,29.84,South,169,2.0,-999.0,45,-99.99,,,0.01,weatherlink.com 1.10,2013-02-27 20:36:00,
2013-02-27 14:51:00,56.6,35.0,29.84,WSW,248,5.0,-999.0,44,-99.99,,,0.01,weatherlink.com 1.10,2013-02-27 20:51:00,
2013-02-27 15:06:00,56.4,36.0,29.84,West,271,3.0,-999.0,46,-99.99,,,0.01,weatherlink.com 1.10,2013-02-27 21:06:00,
2013-02-27 15:21:00,56.4,35.0,29.84,West,264,16.0,-999.0,45,-99.99,,,0.01,weatherlink.com 1.10,2013-02-27 21:21:00,
2013-02-27 15:36:00,56.8,35.0,29.84,SSW,201,1.0,-999.0,45,-99.99,,,0.01,weatherlink.com 1.10,2013-02-27 21:36:00,
2013-02-27 15:51:00,56.7,36.0,29.84,West,261,1.0,-999.0,46,-99.99,,,0.01,weatherlink.com 1.10,2013-02-27 21:51:00,
2013-02-27 16:06:00,56.5,36.0,29.83,WSW,248,3.0,-999.0,46,-99.99,,,0.01,weatherlink.com 1.10,2013-02-27 22:06:00,
2013-02-27 16:21:00,56.3,35.0,29.84,WSW,256,4.0,-999.0,45,-99.99,,,0.01,weatherlink.com 1.10,2013-02-27 22:21:00,
2013-02-27 16:36:00,56.1,34.0,29.84,WNW,290,3.0,-999.0,44,-99.99,,,0.01,weatherlink.com 1.10,2013-02-27 22:36:00,
2013-02-27 16:51:00,55.7,34.0,29.84,West,277,2.0,-999.0,44,-99.99,,,0.01,weatherlink.com 1.10,2013-02-27 22:51:00,
2013-02-27 17:06:00,55.1,34.0,29.84,West,271,3.0,-999.0,46,-99.99,,,0.01,weatherlink.com 1.10,2013-02-27 23:06:00,
2013-02-27 17:21:00,54.6,35.0,29.85,WSW,253,1.0,-999.0,47,-99.99,,,0.01,weatherlink.com 1.10,2013-02-27 23:21:00,
2013-02-27 17:36:00,53.9,34.0,29.86,West,265,5.0,-999.0,48,-99.99,,,0.01,weatherlink.com 1.10,2013-02-27 23:36:00,
2013-02-27 17:51:00,53.5,35.0,29.86,SW,231,1.0,-999.0,49,-99.99,,,0.01,weatherlink.com 1.10,2013-02-27 23:51:00,
2013-02-27 18:06:00,53.0,35.0,29.86,West,261,1.0,-999.0,51,-99.99,,,0.01,weatherlink.com 1.10,2013-02-28 00:06:00,
2013-02-27 18:21:00,52.7,36.0,29.87,West,274,0.0,-999.0,53,-99.99,,,0.01,weatherlink.com 1.10,2013-02-28 00:21:00,
2013-02-27 18:36:00,52.2,36.0,29.87,SW,232,0.0,-999.0,54,-99.99,,,0.01,weatherlink.com 1.10,2013-02-28 00:36:00,
2013-02-27 18:51:00,51.7,37.0,29.87,WSW,258,0.0,-999.0,57,-99.99,,,0.01,weatherlink.com 1.10,2013-02-28 00:51:00,
2013-02-27 19:06:00,51.2,38.0,29.87,WSW,245,2.0,-999.0,60,-99.99,,,0.01,weatherlink.com 1.10,2013-02-28 01:06:00,
2013-02-27 19:21:00,50.7,38.0,29.87,SSW,199,2.0,-999.0,61,-99.99,,,0.01,weatherlink.com 1.10,2013-02-28 01:21:00,
2013-02-27 19:36:00,51.1,36.0,29.88,West,270,3.0,-999.0,57,-99.99,,,0.01,weatherlink.com 1.10,2013-02-28 01:36:00,
2013-02-27 19:51:00,51.6,35.0,29.88,WSW,246,3.0,-999.0,54,-99.99,,,0.01,weatherlink.com 1.10,2013-02-28 01:51:00,
2013-02-27 20:06:00,51.9,35.0,29.89,WNW,284,1.0,-999.0,53,-99.99,,,0.01,weatherlink.com 1.10,2013-02-28 02:06:00,
2013-02-27 20:21:00,51.7,35.0,29.89,WNW,294,1.0,-999.0,54,-99.99,,,0.01,weatherlink.com 1.10,2013-02-28 02:21:00,
2013-02-27 20:36:00,51.0,36.0,29.91,NW,304,3.0,-999.0,56,-99.99,,,0.01,weatherlink.com 1.10,2013-02-28 02:36:00,
2013-02-27 20:51:00,49.3,36.0,29.91,WNW,294,4.0,-999.0,60,-99.99,,,0.01,weatherlink.com 1.10,2013-02-28 02:51:00,
2013-02-27 21:06:00,48.5,36.0,29.92,West,265,2.0,-999.0,62,-99.99,,,0.01,weatherlink.com 1.10,2013-02-28 03:06:00,
2013-02-27 21:21:00,47.9,36.0,29.92,NNW,333,2.0,-999.0,63,-99.99,,,0.01,weatherlink.com 1.10,2013-02-28 03:21:00,
2013-02-27 21:36:00,47.3,33.0,29.92,West,281,2.0,-999.0,57,-99.99,,,0.01,weatherlink.com 1.10,2013-02-28 03:36:00,
2013-02-27 21:51:00,46.8,32.0,29.92,WSW,252,2.0,-999.0,56,-99.99,,,0.01,weatherlink.com 1.10,2013-02-28 03:51:00,
2013-02-27 22:06:00,46.4,31.0,29.92,WNW,292,2.0,-999.0,55,-99.99,,,0.01,weatherlink.com 1.10,2013-02-28 04:06:00,
2013-02-27 22:21:00,45.8,31.0,29.92,WNW,295,3.0,-999.0,56,-99.99,,,0.01,weatherlink.com 1.10,2013-02-28 04:21:00,
2013-02-27 22:36:00,45.5,31.0,29.92,NW,313,2.0,-999.0,57,-99.99,,,0.01,weatherlink.com 1.10,2013-02-28 04:36:00,
2013-02-27 22:51:00,45.1,32.0,29.92,West,259,1.0,-999.0,60,-99.99,,,0.01,weatherlink.com 1.10,2013-02-28 04:51:00,
2013-02-27 23:06:00,44.5,32.0,29.92,West,277,1.0,-999.0,61,-99.99,,,0.01,weatherlink.com 1.10,2013-02-28 05:06:00,
2013-02-27 23:21:00,44.1,33.0,29.91,WSW,238,0.0,-999.0,64,-99.99,,,0.01,weatherlink.com 1.10,2013-02-28 05:21:00,
2013-02-27 23:36:00,43.6,32.0,29.92,West,259,1.0,-999.0,65,-99.99,,,0.01,weatherlink.com 1.10,2013-02-28 05:36:00,
2013-02-27 23:51:00,43.0,32.0,29.92,West,267,0.0,-999.0,66,-99.99,,,0.01,weatherlink.com 1.10,2013-02-28 05:51:00,